Flag for Estonia

Past Weather in Kuressaare, Estonia — Yesterday and Last 2 Weeks

Now
46 °F

Clear.


Feels Like: 44 °F
Forecast: 53 / 46 °F
Wind: 5 mph from Southwest

Location: Kuressaare
Current Time: Oct 20, 2020 at 9:15:15 pm
Latest Report: Oct 20, 2020 at 8:20 pm
Visibility: N/A
Pressure30.07 "Hg
Humidity: 66%
Dew Point: 36 °F
Location of KuressaareLocation

Past Weather in Kuressaare — Graph

°F

Kuressaare Temperature Yesterday

Maximum temperature yesterday: 43 °F (at 10:20 am)
Minimum temperature yesterday: 39 °F (at 12:50 am)
Average temperature yesterday: 41 °F

High & Low Weather Summary for the Past Weeks

 TemperatureHumidityPressure
High63 °F (Oct 6, 12:20 pm)100% (Oct 5, 10:50 pm)30.18 "Hg (Oct 5, 10:50 pm)
Low27 °F (Oct 17, 5:50 am)52% (Oct 12, 2:50 pm)29.45 "Hg (Oct 18, 8:03 am)
Average49 °F84%29.90 "Hg
* Reported Oct 5 7:20 pm — Oct 20 7:50 pm, Kuressaare. Weather by CustomWeather, © 2020

Note: Actual official high and low records may vary slightly from our data, if they occured in-between our weather recording intervals... More about our weather records

Kuressaare Weather History for the Previous 24 Hours

Scroll right to see more
 ConditionsComfort  
Time TempWeatherWind HumidityBarometerVisibility
7:50 pm
Tue, Oct 20
46 °FClear.6 mph66%30.07 "HgN/A
7:20 pm45 °FClear.6 mph76%30.07 "Hg10 mi
6:50 pm45 °FPassing clouds.6 mph76%30.07 "HgN/A
6:20 pm45 °FPassing clouds.6 mph81%30.07 "HgN/A
5:50 pm45 °FScattered clouds.No wind81%30.09 "HgN/A
5:20 pm46 °FScattered clouds.5 mph76%30.09 "HgN/A
4:50 pm46 °FScattered clouds.5 mph76%30.09 "HgN/A
4:20 pm46 °FScattered clouds.6 mph76%30.09 "HgN/A
3:50 pm46 °FScattered clouds.5 mph76%30.09 "HgN/A
3:20 pm46 °FClear.5 mph76%30.09 "HgN/A
2:50 pm46 °FClear.3 mph76%30.12 "HgN/A
1:50 pm45 °FPartly sunny.5 mph81%30.12 "HgN/A
1:20 pm45 °FPartly sunny.5 mph81%30.12 "HgN/A
12:50 pm45 °FPartly sunny.5 mph81%30.12 "HgN/A
12:20 pm43 °FPartly sunny.3 mph87%30.12 "HgN/A
11:50 am43 °FPartly sunny.3 mph93%30.09 "HgN/A
11:20 am43 °FScattered showers. Scattered clouds.3 mph93%30.09 "HgN/A
10:50 am41 °FScattered showers. Scattered clouds.No wind100%30.09 "HgN/A
10:20 am41 °FLight rain. Broken clouds.No wind93%30.07 "HgN/A
9:50 am39 °FLight rain. Broken clouds.No wind93%30.07 "HgN/A
9:20 am37 °FScattered showers. Broken clouds.2 mph100%30.07 "HgN/A
8:50 am37 °FScattered showers. Partly sunny.No wind93%30.04 "HgN/A
8:20 am39 °FScattered showers. Partly sunny.3 mph93%30.04 "HgN/A
7:50 am39 °FSprinkles. Passing clouds.3 mph93%30.04 "HgN/A
7:37 am37 °FLight rain. Passing clouds.3 mph100%30.04 "HgN/A
7:25 am37 °FRain. Passing clouds.5 mph100%30.04 "HgN/A
7:00 am37 °FPassing clouds.5 mph100%30.01 "HgN/A
6:37 am39 °FRain. Mostly cloudy.5 mph93%30.01 "HgN/A
6:23 am39 °FRain. Mostly cloudy.6 mph93%30.01 "Hg2 mi
5:50 am36 °FLight rain. Passing clouds.7 mph100%30.01 "HgN/A
5:20 am36 °FPassing clouds.5 mph93%29.98 "HgN/A
4:50 am36 °FPassing clouds.5 mph93%29.98 "HgN/A
4:20 am37 °FPassing clouds.6 mph93%29.98 "HgN/A
3:50 am37 °FPassing clouds.6 mph100%29.95 "HgN/A
3:20 am39 °FPassing clouds.6 mph93%29.95 "HgN/A
2:50 am39 °FLight rain. Partly cloudy.6 mph93%29.92 "HgN/A
2:34 am39 °FLight rain. Partly cloudy.6 mph93%29.92 "HgN/A
2:02 am41 °FMostly cloudy.7 mph87%29.92 "HgN/A
1:38 am41 °FRain. Partly cloudy.13 mph87%29.92 "HgN/A
1:20 am41 °FPartly cloudy.8 mph81%29.89 "HgN/A
12:50 am41 °FPassing clouds.8 mph81%29.89 "HgN/A
12:20 am41 °FLight rain. Passing clouds.8 mph81%29.89 "HgN/A
11:50 pm
Mon, Oct 19
41 °FLight rain. Partly cloudy.10 mph81%29.89 "HgN/A
11:20 pm41 °FPassing clouds.10 mph76%29.89 "HgN/A
10:50 pm41 °FLight rain. Passing clouds.9 mph76%29.86 "HgN/A
10:20 pm41 °FPassing clouds.9 mph76%29.86 "HgN/A
9:50 pm41 °FLight rain. Passing clouds.10 mph81%29.86 "HgN/A
9:20 pm41 °FLight rain. Passing clouds.10 mph81%29.83 "HgN/A
Weather by CustomWeather, © 2020

See weather overview